Weather History for KOGD - October, 2012

Change the Weather History Date:

Wednesday, October 3, 2012

  Actual Average Record
Temperature  
Mean Temperature 60 °F -  
Max Temperature 71 °F 72 °F 87 °F (1963)
Min Temperature 46 °F 41 °F 30 °F (1969)
Degree Days  
Heating Degree Days 5    
Growing Degree Days 10 (Base 50)    
Moisture  
Dew Point 25 °F    
Average Humidity 30    
Maximum Humidity 50    
Minimum Humidity 11    
Precipitation  
Precipitation 0.00 in - - ()
Sea Level Pressure  
Sea Level Pressure 29.96 in    
Wind  
Wind Speed 7 mph (WSW)    
Max Wind Speed 15 mph    
Max Gust Speed -    
Visibility 10 miles    
Events      
Averages and records for this station are not official NWS values.
T = Trace of Precipitation, MM = Missing Value Source: NWS Daily Summary

Daily Weather History Graph

Daily Weather History Graph

Search for Another Location

Airport or City:

Trip Planner

Search our weather history database for the weather conditions in past years. The results will help you decide how hot, cold, wet, or windy it might be!

Date:

Astronomy

Oct. 03, 2012 Rise Set
Actual Time 7:27 AM MDT 7:05 PM MDT
Civil Twilight 6:59 AM MDT 7:33 PM MDT
Nautical Twilight 6:27 AM MDT 8:05 PM MDT
Astronomical Twilight 5:55 AM MDT 8:37 PM MDT
Moon 8:58 PM MDT (10/3) 10:56 AM MDT (10/3)
Length of Visible Light 12h 33m
Length of Day
11h 38m
Waning Gibbous, 88% of the Moon is Illuminated
Oct 3
Waning Gibbous
Oct 8
Last Quarter
Oct 15
New
Oct 21
First Quarter
Oct 29
Full

Hourly Weather History & Observations

Time (MDT) Temp. Dew Point Humidity Pressure Visibility Wind Dir Wind Speed Gust Speed Precip Events Conditions
12:53 AM 55.9 °F 32.0 °F 40% 29.81 in 10.0 mi South 4.6 mph - N/A   Clear
1:53 AM 55.9 °F 30.9 °F 39% 29.83 in 10.0 mi South 9.2 mph - N/A   Clear
2:53 AM 55.0 °F 30.0 °F 38% 29.84 in 10.0 mi South 8.1 mph - N/A   Clear
4:53 AM 53.1 °F 30.9 °F 43% 29.85 in 10.0 mi South 10.4 mph - N/A   Clear
5:53 AM 53.1 °F 30.9 °F 43% 29.87 in 10.0 mi South 5.8 mph - N/A   Clear
6:53 AM 51.1 °F 32.0 °F 48% 29.89 in 10.0 mi South 6.9 mph - N/A   Clear
7:53 AM 50.0 °F 32.0 °F 50% 29.91 in 10.0 mi South 6.9 mph - N/A   Clear
8:53 AM 55.9 °F 34.0 °F 44% 29.93 in 10.0 mi South 5.8 mph - N/A   Clear
9:53 AM 61.0 °F 35.1 °F 38% 29.95 in 10.0 mi WNW 6.9 mph - N/A   Clear
10:53 AM 64.9 °F 32.0 °F 29% 29.96 in 10.0 mi NNW 5.8 mph - N/A   Clear
11:53 AM 66.9 °F 19.9 °F 17% 29.96 in 10.0 mi WSW 3.5 mph - N/A   Clear
12:53 PM 69.1 °F 18.0 °F 14% 29.97 in 10.0 mi WNW 9.2 mph - N/A   Clear
1:53 PM 69.1 °F 18.0 °F 14% 29.97 in 10.0 mi SW 11.5 mph - N/A   Clear
2:53 PM 69.1 °F 23.0 °F 18% 29.98 in 10.0 mi SW 9.2 mph - N/A   Clear
3:53 PM 70.0 °F 12.9 °F 11% 29.98 in 10.0 mi Variable 6.9 mph - N/A   Clear
4:53 PM 66.9 °F 14.0 °F 13% 30.00 in 10.0 mi North 15.0 mph - N/A   Clear
5:53 PM 64.0 °F 15.1 °F 15% 30.02 in 10.0 mi North 15.0 mph - N/A   Clear
6:53 PM 60.1 °F 18.0 °F 20% 30.03 in 10.0 mi NNW 10.4 mph - N/A   Clear
7:53 PM 55.0 °F 19.0 °F 24% 30.05 in 10.0 mi NW 6.9 mph - N/A   Clear
8:53 PM 54.0 °F 21.0 °F 28% 30.05 in 10.0 mi NW 10.4 mph - N/A   Clear
9:53 PM 51.1 °F 21.9 °F 32% 30.05 in 10.0 mi West 4.6 mph - N/A   Clear
10:53 PM 50.0 °F 24.1 °F 36% 30.05 in 10.0 mi West 3.5 mph - N/A   Clear
11:53 PM 46.9 °F 25.0 °F 42% 30.05 in 10.0 mi WNW 4.6 mph - N/A   Clear